Date,TemperatureHighF,TemperatureAvgF,TemperatureLowF,DewpointHighF,DewpointAvgF,DewpointLowF,HumidityHigh,HumidityAvg,HumidityLow,PressureMaxIn,PressureMinIn,WindSpeedMaxMPH,WindSpeedAvgMPH,GustSpeedMaxMPH,PrecipitationSumIn
2013-1-1,44,36,27,28,24,18,71,63,47,30.03,29.93,4,0,7,0.00
2013-1-2,40,33,25,27,16,6,71,51,30,30.24,30.00,7,1,13,0.00
2013-1-3,47,29,17,18,14,8,76,56,23,30.26,30.14,3,0,6,0.00
2013-1-4,46,36,26,17,14,9,64,42,24,30.22,30.13,7,2,12,0.00
2013-1-5,51,40,29,19,12,0,54,35,12,30.39,30.17,4,1,8,0.00
2013-1-6,50,39,27,26,23,18,77,53,31,30.19,30.04,5,0,10,0.00
2013-1-7,50,37,24,27,21,15,80,53,25,30.48,30.17,7,2,13,0.00
2013-1-8,62,37,22,32,21,5,85,61,10,30.42,30.34,5,0,10,0.00
2013-1-9,54,39,24,39,28,16,84,68,23,30.43,30.24,8,0,17,0.00
2013-1-10,63,48,39,25,22,11,57,37,13,30.62,30.43,7,1,14,0.00
2013-1-11,54,44,38,40,30,22,90,61,34,30.48,30.10,8,1,14,0.06
2013-1-12,64,46,40,47,42,37,94,86,53,30.19,30.10,3,0,6,0.01
2013-1-13,68,52,39,54,46,38,96,82,54,30.11,29.95,4,0,8,0.00
2013-1-14,65,52,38,57,42,30,91,68,49,30.35,29.95,8,2,17,0.26
2013-1-15,40,37,34,36,34,31,93,87,74,30.37,30.16,4,0,7,0.63
2013-1-16,40,37,34,38,35,32,95,93,88,30.17,29.83,6,0,10,0.38
2013-1-17,44,39,33,38,30,23,96,74,46,30.15,30.00,7,1,13,0.00
2013-1-18,45,35,29,29,12,-8,81,40,11,30.50,30.11,10,2,19,0.00
2013-1-19,65,45,26,24,15,1,66,35,10,30.39,29.95,5,1,17,0.00
2013-1-20,59,45,30,25,7,-13,55,25,10,30.09,29.85,11,3,26,0.00
2013-1-21,51,33,25,15,8,-8,56,37,11,30.11,29.80,11,2,18,0.00
2013-1-22,28,19,14,4,-11,-24,38,26,10,30.29,29.97,11,3,21,0.00
2013-1-23,27,20,12,10,-8,-20,68,30,13,30.34,30.12,8,1,16,0.00
2013-1-24,31,21,10,16,3,-12,82,51,16,30.54,30.07,9,2,17,0.02
2013-1-25,24,18,10,15,8,-1,77,64,35,30.53,30.06,6,1,11,0.00
2013-1-26,37,27,20,24,18,14,80,69,52,30.45,30.07,5,0,8,0.04
2013-1-27,46,32,20,20,13,7,64,47,23,30.59,30.44,6,1,10,0.00
2013-1-28,52,38,31,40,31,19,89,76,57,30.45,30.06,4,1,9,0.17
2013-1-29,77,59,41,54,46,38,93,65,34,30.13,29.95,6,1,11,0.01
2013-1-30,73,59,50,57,52,43,98,80,53,29.95,29.25,12,2,19,1.37
2013-1-31,56,40,28,56,21,7,99,49,28,29.91,29.20,14,5,26,0.18